Wind_Speed
21 21 20 20 20 20 19 20 21 21 21 21 21 21 22 22 21 22 22 21 21 21 21 20 21 20 21 21 20 20 21 21 20 20 20 20 20 20 20 21 21 21 21
24 23 22 22 22 22 22 21 22 22 22 21 22 22 23 23 23 23 23 23 23 23 23 23 22 23 22 22 22 21 21 21 22 22 22 22 21 21 22 22 22 23 23
26 25 24 24 24 24 24 24 23 23 23 23 23 23 24 25 25 25 25 25 25 25 25 24 24 24 24 24 23 23 23 22 23 23 23 23 24 24 24 24 24 24 24
27 26 26 26 25 25 25 25 25 24 24 24 24 24 25 26 26 26 27 27 27 26 26 26 26 26 25 26 25 25 25 25 25 25 25 25 26 26 26 26 26 26 26
28 27 27 27 27 26 26 26 26 26 25 25 26 26 26 27 27 27 28 29 29 29 28 27 27 27 27 27 27 28 28 28 28 28 28 27 27 27 27 28 28 28 27
29 28 27 27 28 27 27 27 27 27 27 27 27 27 28 28 28 29 29 30 31 30 30 29 29 29 29 29 30 31 31 31 30 30 30 29 29 29 29 29 30 30 29
30 30 28 28 28 28 27 27 28 28 28 28 28 28 28 29 29 30 31 31 31 31 32 32 31 31 31 31 32 32 32 32 32 31 31 31 31 31 31 31 32 32 32
32 31 30 29 29 29 29 28 29 29 29 29 29 30 30 30 29 30 30 31 31 32 33 33 32 33 33 34 34 33 33 33 33 33 33 33 33 33 32 33 34 35 35
34 33 32 32 31 30 30 30 30 31 30 30 30 30 30 31 31 31 31 31 31 32 33 34 33 33 34 34 34 34 34 34 35 35 35 35 35 35 36 36 36 37 37
35 34 34 34 33 32 31 31 31 31 32 31 31 31 32 32 31 31 31 31 31 32 34 35 35 35 35 36 35 35 35 35 36 36 36 36 37 38 38 39 39 39 38
37 36 35 35 34 34 33 32 31 32 33 32 31 32 32 32 32 32 31 32 32 33 35 36 35 35 36 37 37 37 37 37 38 38 39 39 39 40 40 40 40 41 41
38 37 36 36 35 35 34 34 34 33 33 34 33 33 33 33 32 32 32 32 33 34 36 37 37 37 37 37 37 38 39 39 40 40 41 41 41 41 42 41 42 43 43
40 39 38 38 37 37 36 36 36 35 35 35 34 34 34 33 33 33 33 33 33 34 35 36 37 38 38 38 38 39 40 40 41 41 41 42 42 43 43 43 43 44 44
42 41 40 39 39 38 38 37 37 36 36 36 35 34 34 35 35 35 35 35 35 36 36 37 37 38 38 39 39 40 40 41 41 42 42 43 44 44 45 45 45 45 45
43 43 42 41 41 40 39 39 38 38 37 37 37 36 36 37 38 38 38 38 37 37 38 38 38 38 38 39 40 40 41 42 42 43 44 45 45 45 46 46 46 45 45
45 45 44 43 42 41 41 41 40 40 39 39 39 39 38 39 39 39 39 39 40 40 39 39 39 39 40 40 40 40 41 42 44 45 46 45 45 45 46 46 45 45 45
46 45 45 44 44 43 43 43 42 41 41 41 41 41 41 41 41 41 41 41 42 41 41 40 40 40 41 41 41 41 42 43 44 45 45 46 47 46 46 46 46 46 46
47 47 46 46 46 45 45 44 44 43 43 43 43 43 43 43 43 42 43 42 42 42 42 42 41 41 41 42 42 43 44 45 45 45 45 45 46 46 46 46 47 47 47
48 48 48 47 46 46 46 46 46 45 45 45 45 45 45 45 44 44 44 43 43 43 43 43 43 43 43 44 45 45 46 46 47 47 46 46 46 46 47 48 48 49 49
49 49 49 48 47 47 47 47 47 47 46 46 46 46 46 46 46 46 45 45 44 44 44 45 45 45 46 47 47 47 47 47 47 48 49 49 48 48 49 49 50 51 51
50 50 49 49 49 49 48 48 47 47 47 47 47 47 47 47 47 47 47 46 46 46 46 46 47 47 48 48 48 48 48 48 48 49 49 50 50 50 50 50 51 51 51
51 51 50 50 50 50 50 49 49 48 49 49 49 48 48 47 48 48 48 48 48 48 48 49 49 49 49 49 49 49 49 49 49 50 50 50 50 50 51 51 52 52 52
51 51 51 52 52 52 52 51 51 51 51 50 50 49 49 49 49 49 49 49 49 49 50 50 50 50 50 50 50 50 50 50 50 50 51 50 50 51 51 52 52 52 52
49 50 51 51 51 51 52 52 52 52 51 51 51 51 51 50 50 50 50 50 50 50 51 51 52 51 51 52 52 52 51 51 51 51 51 51 51 51 51 51 51 52 52
49 49 50 51 51 51 52 52 52 52 52 52 52 52 52 52 52 52 52 51 51 51 52 52 52 52 53 53 53 53 52 52 51 51 52 52 52 52 51 51 51 52 53
49 49 50 50 51 51 52 52 52 53 52 53 53 53 53 53 53 53 52 52 52 52 52 52 53 53 53 53 53 54 54 53 53 53 53 53 52 52 50 50 51 52 52
Wind_Direction
247 247 245 246 251 253 254 255 254 253 254 254 255 257 258 258 258 258 258 259 260 260 261 263 264 264 265 266 268 271 273 275 276 278 281 283 284 285 286 288 290 292 296
247 249 250 250 253 254 254 256 256 257 257 256 257 259 260 259 259 258 259 260 261 261 262 263 265 265 266 268 268 271 272 274 276 278 280 281 283 284 285 286 288 291 293
247 249 250 251 253 254 255 257 258 259 258 257 257 259 260 260 260 260 260 261 261 261 262 263 264 265 266 268 268 270 272 274 276 278 278 280 281 282 284 285 286 288 290
247 249 251 252 253 254 255 257 259 259 259 259 258 260 262 260 259 259 260 261 261 261 263 264 264 265 266 267 268 270 272 274 276 277 277 278 280 282 284 285 286 288 290
247 249 251 252 252 254 256 257 258 258 260 260 260 261 262 262 261 261 262 261 262 262 262 263 264 265 266 267 269 270 272 274 275 276 277 277 279 280 282 284 285 286 288
247 249 251 252 252 254 255 256 257 258 260 261 261 262 263 264 265 263 264 263 263 262 261 263 264 264 266 268 270 271 272 274 275 275 276 277 278 279 281 282 284 285 287
248 249 251 252 252 253 255 256 257 258 259 260 261 262 264 265 267 266 264 264 264 263 262 263 265 265 266 268 270 271 273 274 274 276 277 278 278 279 280 281 283 283 285
248 249 250 252 253 253 255 256 257 258 259 260 262 264 265 265 267 268 267 266 265 263 263 263 266 267 267 269 270 271 271 273 275 275 277 277 278 278 279 281 282 283 284
248 249 251 252 253 254 254 255 257 258 258 260 262 264 266 267 268 268 269 268 266 265 265 264 266 269 269 270 271 271 272 273 275 275 276 277 278 278 279 280 282 284 284
248 248 250 251 252 253 255 256 257 257 260 262 262 264 266 267 268 268 268 268 267 267 267 266 267 269 270 271 271 271 272 273 275 275 276 277 278 279 279 281 282 282 283
247 249 250 251 251 252 254 255 256 258 261 261 263 265 265 267 268 268 267 269 269 269 269 267 269 271 271 271 270 270 272 272 274 275 276 277 278 279 280 281 281 281 282
247 248 248 250 251 251 253 254 256 258 260 261 263 266 265 266 267 267 268 269 270 271 270 268 269 272 271 272 272 271 271 273 274 275 276 277 278 279 280 281 281 281 281
247 248 248 250 251 252 253 254 256 258 260 261 262 264 264 265 266 267 269 270 271 271 272 273 273 273 273 273 273 273 273 274 275 276 277 277 278 279 280 281 281 280 280
248 249 249 250 251 252 254 255 256 257 258 260 261 263 264 266 266 269 270 270 272 272 273 273 274 275 274 275 275 275 274 274 275 277 278 278 279 279 280 280 281 280 279
247 249 249 250 251 253 254 254 255 255 257 259 261 263 265 266 267 268 270 270 272 272 272 274 274 275 276 277 277 276 275 276 277 277 278 279 279 279 279 280 279 279 279
247 248 249 250 252 253 253 254 254 255 256 258 260 262 263 264 266 269 271 272 273 274 273 274 274 275 276 278 278 278 278 279 279 279 279 280 280 280 280 280 280 279 279
248 249 250 251 252 253 253 253 255 255 257 258 260 262 264 265 268 270 271 273 273 274 274 273 274 275 276 277 278 278 279 279 280 280 281 281 281 280 281 280 280 280 281
248 249 250 251 252 252 253 254 255 256 257 259 261 263 265 266 268 270 272 273 274 274 274 274 275 276 276 277 278 279 279 279 280 281 281 282 282 282 281 281 280 281 281
248 249 250 251 251 252 253 254 255 256 257 259 261 263 265 267 268 270 272 273 274 274 274 275 275 276 277 277 278 279 279 280 281 281 281 282 282 282 282 282 281 281 281
248 249 249 250 251 252 253 254 255 256 257 259 261 263 264 266 268 270 271 273 273 273 275 276 277 277 278 279 279 279 279 279 280 280 281 282 282 282 283 282 282 281 281
249 249 250 251 252 253 254 255 256 257 258 259 261 263 265 267 268 269 271 272 273 273 275 277 278 278 279 280 280 280 280 280 280 280 280 281 282 282 283 283 283 282 282
249 249 250 252 253 254 255 256 257 258 259 261 262 264 266 267 269 270 272 272 273 274 275 276 278 278 279 280 280 280 280 280 280 280 281 281 282 283 283 283 282 282 282
249 250 250 252 253 254 256 257 258 259 260 262 263 264 266 267 269 271 272 273 274 275 276 276 277 278 279 279 280 281 281 281 281 281 281 281 281 282 282 282 282 282 281
250 251 251 252 253 254 256 257 258 260 261 262 264 265 266 268 269 270 272 273 274 275 276 277 278 278 279 279 280 281 282 282 282 282 282 282 282 282 282 282 282 282 282
251 252 253 253 254 255 256 257 259 260 262 263 265 266 267 268 269 270 272 273 274 275 276 277 278 278 278 279 280 280 281 282 282 282 283 283 282 282 282 282 282 282 283
251 253 253 254 254 255 257 258 260 262 263 264 265 267 268 269 270 272 273 274 275 275 276 277 278 278 278 279 279 280 281 281 281 281 282 282 283 282 282 283 283 283 284
Height
5818 5820 5821 5823 5825 5827 5828 5830 5831 5833 5834 5835 5837 5838 5839 5841 5842 5843 5844 5845 5846 5847 5847 5848 5849 5849 5850 5850 5850 5851 5851 5851 5850 5850 5850 5849 5849 5848 5848 5847 5846 5845 5844
5813 5815 5817 5819 5821 5822 5824 5825 5827 5828 5830 5831 5832 5833 5835 5836 5837 5838 5839 5840 5841 5842 5843 5844 5844 5844 5845 5846 5846 5846 5846 5846 5846 5846 5846 5845 5845 5844 5843 5843 5842 5841 5840
5808 5810 5812 5814 5816 5817 5819 5821 5822 5824 5825 5826 5827 5828 5830 5831 5832 5833 5834 5835 5836 5837 5838 5839 5839 5840 5840 5841 5841 5841 5841 5841 5841 5841 5841 5840 5840 5839 5838 5838 5837 5836 5835
5802 5805 5807 5809 5810 5812 5814 5816 5817 5818 5820 5821 5822 5823 5824 5825 5826 5827 5829 5830 5831 5832 5833 5833 5834 5834 5835 5836 5836 5836 5836 5836 5836 5836 5835 5835 5834 5834 5833 5832 5832 5831 5830
5797 5799 5801 5803 5805 5806 5808 5810 5811 5813 5814 5815 5816 5818 5819 5819 5820 5821 5822 5823 5824 5826 5827 5827 5828 5829 5830 5830 5830 5830 5830 5830 5830 5830 5830 5829 5829 5828 5827 5827 5826 5825 5824
5791 5793 5795 5797 5799 5800 5802 5804 5805 5807 5808 5809 5810 5812 5813 5814 5814 5815 5816 5817 5818 5819 5820 5821 5822 5823 5823 5824 5824 5824 5824 5824 5824 5824 5823 5823 5823 5822 5821 5821 5820 5819 5818
5784 5787 5789 5791 5793 5794 5796 5797 5799 5800 5802 5803 5804 5805 5806 5807 5808 5808 5809 5810 5811 5812 5813 5814 5815 5816 5817 5817 5817 5817 5817 5817 5817 5817 5817 5816 5816 5815 5815 5814 5813 5812 5811
5777 5780 5782 5784 5786 5788 5789 5791 5793 5794 5795 5797 5798 5799 5800 5801 5801 5802 5802 5803 5803 5804 5806 5806 5807 5808 5809 5810 5810 5810 5810 5810 5810 5810 5810 5809 5809 5808 5808 5807 5806 5805 5804
5770 5773 5775 5777 5779 5781 5783 5784 5786 5787 5789 5790 5791 5792 5793 5794 5794 5795 5795 5796 5796 5797 5798 5799 5800 5801 5801 5802 5802 5803 5803 5803 5802 5802 5802 5802 5801 5800 5800 5799 5798 5797 5796
5763 5765 5768 5770 5772 5774 5776 5777 5779 5780 5782 5783 5784 5785 5786 5786 5787 5788 5788 5788 5789 5790 5790 5791 5792 5793 5793 5794 5794 5794 5795 5794 5794 5794 5793 5793 5792 5792 5791 5790 5789 5788 5786
5755 5757 5760 5762 5764 5766 5768 5770 5772 5773 5774 5776 5777 5777 5778 5779 5779 5780 5781 5781 5782 5782 5783 5784 5784 5784 5785 5785 5786 5786 5786 5786 5785 5785 5785 5784 5783 5783 5782 5781 5779 5778 5777
5746 5749 5752 5754 5756 5758 5760 5762 5764 5765 5767 5768 5769 5770 5770 5771 5772 5773 5774 5774 5774 5775 5775 5776 5776 5776 5776 5776 5776 5777 5777 5776 5776 5776 5775 5775 5774 5773 5772 5771 5770 5768 5767
5737 5740 5743 5745 5748 5750 5752 5754 5756 5757 5759 5760 5761 5762 5763 5763 5764 5765 5766 5766 5767 5767 5767 5767 5767 5767 5767 5767 5767 5767 5767 5767 5766 5766 5765 5764 5763 5762 5761 5760 5759 5757 5756
5728 5731 5734 5736 5739 5741 5743 5745 5747 5749 5750 5752 5753 5754 5755 5755 5756 5757 5757 5758 5759 5759 5759 5759 5758 5758 5758 5758 5758 5758 5757 5757 5756 5755 5754 5753 5752 5751 5750 5749 5747 5746 5745
5718 5721 5724 5727 5729 5732 5734 5736 5738 5740 5742 5743 5744 5745 5746 5747 5748 5748 5749 5749 5750 5750 5751 5750 5749 5749 5748 5748 5748 5747 5747 5747 5746 5745 5744 5742 5741 5740 5738 5737 5735 5734 5733
5707 5711 5714 5717 5719 5722 5724 5727 5729 5730 5732 5734 5735 5736 5737 5738 5739 5739 5740 5740 5740 5741 5741 5741 5740 5740 5739 5739 5738 5737 5737 5736 5735 5734 5733 5731 5730 5728 5726 5725 5723 5722 5721
5697 5700 5703 5706 5709 5712 5714 5716 5719 5721 5722 5724 5725 5727 5727 5728 5729 5730 5730 5730 5730 5730 5730 5731 5730 5730 5729 5729 5728 5727 5726 5725 5724 5722 5721 5719 5718 5716 5714 5713 5711 5710 5709
5686 5689 5692 5695 5698 5701 5703 5706 5708 5710 5712 5714 5715 5716 5717 5718 5719 5719 5720 5720 5720 5719 5719 5720 5719 5719 5719 5718 5717 5716 5715 5714 5713 5711 5709 5707 5706 5704 5702 5700 5699 5698 5697
5674 5677 5681 5684 5687 5690 5692 5695 5697 5699 5701 5703 5704 5706 5707 5707 5708 5708 5709 5709 5709 5708 5708 5709 5708 5708 5707 5706 5706 5705 5703 5702 5701 5699 5697 5695 5693 5691 5689 5688 5686 5685 5684
5662 5665 5669 5672 5675 5678 5681 5683 5686 5688 5690 5691 5693 5694 5695 5696 5697 5697 5697 5697 5697 5697 5697 5697 5697 5696 5696 5694 5694 5693 5692 5690 5688 5687 5685 5683 5681 5679 5677 5675 5673 5672 5670
5650 5653 5657 5660 5663 5666 5669 5672 5674 5676 5678 5680 5681 5682 5683 5684 5684 5685 5685 5686 5685 5685 5685 5685 5685 5684 5683 5682 5681 5679 5678 5677 5676 5674 5672 5670 5668 5666 5664 5661 5659 5658 5656
5637 5641 5645 5648 5651 5654 5657 5659 5662 5664 5666 5667 5669 5670 5671 5672 5672 5672 5673 5673 5673 5673 5672 5672 5672 5671 5670 5669 5667 5666 5665 5664 5663 5661 5659 5657 5655 5652 5650 5648 5645 5643 5641
5625 5629 5632 5636 5639 5642 5644 5647 5649 5651 5653 5655 5656 5657 5658 5659 5659 5660 5660 5660 5660 5659 5659 5659 5658 5657 5656 5655 5653 5652 5651 5649 5649 5647 5645 5644 5641 5638 5636 5633 5630 5628 5626
5614 5617 5620 5623 5626 5629 5631 5634 5636 5638 5640 5642 5643 5644 5645 5646 5646 5646 5647 5647 5647 5646 5645 5645 5644 5643 5641 5640 5638 5637 5636 5635 5634 5632 5629 5629 5627 5624 5621 5618 5616 5613 5611
5602 5605 5608 5610 5613 5616 5618 5621 5623 5625 5627 5628 5629 5630 5631 5632 5632 5632 5633 5633 5633 5632 5631 5630 5629 5628 5626 5625 5623 5622 5621 5620 5619 5618 5614 5613 5611 5609 5607 5604 5601 5598 5596
5590 5592 5595 5598 5601 5603 5605 5607 5609 5611 5613 5615 5616 5616 5617 5617 5618 5618 5618 5619 5619 5618 5617 5616 5614 5613 5611 5610 5608 5607 5605 5604 5603 5602 5600 5597 5595 5593 5592 5591 5587 5584 5581